SL-16 DEB *, 42255

Orbit data source: Space-Track

SL-16 DEB *, 42255 is space debris in LEO originally from a launch on Fri, 26 Mar 1993 UTC launched from the Tyuratam Missile And Space Complex (TTMTR). Debris objects in space refer to the collection of defunct objects orbiting the Earth. Examples of debris include non-operational satellites, rocket bodies, and fragments generated from explosions, collisions, or faulty payload assembly.

Loading next visibility...
Identifier
42255, 1993-016DK
Orbit
LEO
Country
Flag of CISCIS
Related business
Manufacturer
Unknown
Mission
Spacecraft
Bus & Motor
Unknown
Mass
Unknown
Launch date (UTC)
1993-03-26 (33 years ago)
Launch vehicle
Unknown
Launch site
Tyuratam Missile And Space Complex (TTMTR)
Object type
Payload
Rocket body
Debris
Shape & HBR
Unknown shape, 0.1 m
Radar Cross Section
Small (<0.1 m²)

Expand to show TLE details & history
Last TLE update: 16 hours ago

TLE from 16 hours ago
0 SL-16 DEB *
1 42255U 93016DK  26255.03456892  .00000621  00000-0  29556-3 0  9993
2 42255  71.0061 110.7374 0010530 336.0020 174.1595 14.23219983663392
Epoch: 2026-09-12T00:49Z
TLE epoch observation values (Epoch: 2026-09-12T00:49:46.754Z)
Latitude
28.10597°
Longitude
-83.29335°
Altitude
824.967 km
Speed
7.439 km/s
True Right ascension
18h 40m 48s
True Declination
27° 57' 53"
Sunlit
Object was in daylight at epoch
Visualization orbit readout
Latitude
Unknown
Longitude
Unknown
Altitude
Unknown
Speed
Unknown
Apparent Right ascension
Unknown
Apparent Declination
Unknown
Sunlit
N/A
Visualization observer readout
Local Sidereal Time
08:48:17
Azimuth
Unknown
Elevation
Unknown
Doppler factor
Unknown
Orbital elements
Apogee altitude
819.971 km
Perigee altitude
804.828 km
Semi-major axis
7,190.537 km
Eccentricity
0.00105
Inclination
71.0061°
RAAN
110.7374°
Arg. of periapsis
336.002°
True anomaly
174.17176°
Mean anomaly
174.1595°
Eccentric anomaly
174.16563°
Mean motion
3.5596 °/min
Orbital period
101.13 mins
BSTAR
0.00029556
Loading maneuver chart data...
Computing Atmospheric mass density...
Loading historical data...
Loading historical data...
Loading historical data...
Loading historical data...
Loading historical data...
Loading historical data...
Loading historical data...

Documentation

Showing up to 5 results
|